Wind_Speed
19 15 19 22 20 21 18 18 20 17 12 17 20 14 16 18 19 20 20 21 23 24 25 30 30 30 28 27 27 26 24 21 21 19 18 17 16 13 11 11 7 7 7 7
13 21 20 18 18 19 20 14 18 18 16 14 16 15 16 19 18 20 20 21 23 23 24 29 31 31 31 30 29 27 26 23 23 20 19 16 15 15 12 10 9 9 9 8
21 11 20 21 19 17 19 19 17 14 17 16 15 12 16 16 17 19 19 21 22 24 26 25 30 33 32 32 31 29 27 25 25 21 18 15 15 11 13 13 11 11 10 9
20 22 9 22 21 19 19 18 19 16 17 15 20 14 10 10 18 20 20 19 22 24 24 24 28 33 35 34 32 29 29 27 26 23 22 20 19 17 15 14 15 15 13 11
16 18 23 19 20 19 18 17 17 18 18 17 20 17 19 34 27 23 22 22 22 24 26 27 29 36 36 35 35 32 30 28 28 28 22 23 21 19 17 16 15 10 14 13
17 15 15 21 17 15 18 18 17 15 15 18 24 20 19 15 13 26 25 24 23 24 25 26 34 34 34 36 35 34 33 32 30 30 31 24 24 20 18 17 16 15 15 14
18 21 17 13 17 21 16 18 13 14 15 19 24 24 19 17 25 27 28 25 25 24 24 24 26 31 36 37 38 36 35 34 35 32 32 26 24 25 16 17 17 17 17 17
12 16 21 17 21 19 22 21 14 24 15 21 25 27 23 25 16 14 17 26 26 26 24 25 27 34 35 37 37 36 37 36 35 35 33 34 28 25 24 20 20 19 17 15
10 20 3 5 15 21 21 24 26 25 21 17 19 28 24 25 25 17 12 22 17 28 25 26 25 34 35 37 38 39 37 38 37 38 34 32 33 31 27 24 26 18 19 15
9 13 16 4 6 17 19 16 21 18 25 26 20 23 19 25 24 26 18 13 24 25 24 24 24 32 36 39 39 38 38 38 38 38 37 35 34 34 29 27 23 24 20 19
15 10 16 17 12 17 16 20 18 19 23 20 19 15 18 24 25 22 25 18 17 20 21 21 22 32 36 36 37 40 39 36 37 38 38 37 35 34 34 28 27 25 21 18
9 13 14 23 13 15 21 24 24 17 22 21 21 16 6 19 24 21 20 23 22 20 19 21 20 28 33 36 38 39 41 42 40 40 38 38 35 36 34 34 31 26 26 24
9 10 13 19 15 17 19 23 17 19 22 24 20 19 14 6 3 11 20 22 21 22 20 17 18 20 27 34 35 38 40 42 41 39 40 38 38 36 36 34 33 31 28 26
8 14 17 15 8 13 14 26 24 22 18 22 21 22 24 10 5 10 13 17 21 21 21 20 21 20 26 31 33 34 38 40 39 39 41 40 40 39 38 35 34 33 31 28
10 18 19 19 21 15 17 19 15 22 19 20 21 25 23 20 13 7 5 8 8 5 9 20 18 16 18 24 30 32 35 35 38 37 38 40 40 39 36 37 35 33 32 32
15 17 18 20 20 17 20 20 19 22 22 21 21 25 23 17 21 16 6 9 3 6 5 8 11 13 15 23 26 31 33 35 38 36 39 37 38 38 39 37 36 34 34 32
14 8 13 19 19 22 22 24 24 24 25 23 22 22 19 18 9 16 6 3 5 8 8 6 9 9 17 25 27 30 35 34 35 33 36 35 37 39 38 38 37 37 35 32
13 11 11 13 18 17 17 16 18 20 27 25 25 25 24 23 14 8 5 5 7 9 9 9 9 11 13 17 26 29 32 36 34 36 33 37 36 37 36 36 38 37 35 34
18 13 6 5 13 14 24 5 7 9 17 26 25 24 25 22 24 13 3 4 7 10 11 12 15 15 14 17 20 25 29 33 34 32 38 38 39 37 36 37 37 35 33 32
20 17 10 13 11 17 16 6 9 9 12 21 11 13 12 16 13 10 13 7 9 10 13 14 17 17 18 20 22 24 30 30 35 37 40 36 36 35 36 36 36 36 34 33
13 12 16 15 12 10 7 4 8 7 0 15 13 16 12 11 10 11 12 11 11 12 13 17 20 17 20 22 24 26 26 31 34 33 31 33 35 35 34 32 31 33 33 31
8 7 11 15 17 17 15 9 6 6 11 12 14 10 13 13 9 11 10 12 13 13 14 15 17 20 19 19 24 24 27 25 27 30 32 32 33 34 33 32 32 31 30 29
3 4 4 5 7 4 6 8 12 14 14 12 12 9 11 13 8 10 10 11 11 13 15 15 17 18 23 26 10 19 23 23 26 28 29 29 30 32 30 32 30 29 28 29
5 6 4 6 5 9 14 13 12 14 14 15 10 7 9 8 9 9 10 10 10 12 15 18 18 19 23 28 25 21 9 19 21 24 25 27 29 30 29 31 31 30 29 29
2 4 4 5 11 17 11 10 12 14 11 5 7 7 8 8 8 8 7 10 11 13 15 18 19 20 21 25 26 26 21 6 22 23 25 27 29 31 30 28 30 29 28 29
3 4 3 1 3 5 3 11 14 13 11 7 6 8 7 6 8 8 7 10 10 13 14 15 18 21 23 25 27 31 34 18 10 20 25 28 29 30 30 29 19 25 21 25
Wind_Direction
198 213 214 215 228 237 266 239 228 214 177 228 220 175 152 193 166 158 166 172 180 183 179 183 188 185 183 184 183 186 186 176 182 184 187 190 182 189 193 189 151 175 183 187
189 221 224 228 231 231 252 258 262 234 191 206 225 231 188 170 174 164 173 174 180 182 179 184 190 189 188 186 187 186 188 181 189 194 195 195 201 187 197 202 176 191 192 191
227 215 221 233 231 236 233 241 244 248 236 209 234 225 235 227 172 165 176 178 182 186 184 184 190 192 192 189 191 187 189 185 191 196 196 197 205 211 199 186 183 191 191 192
226 245 219 217 234 228 237 220 257 257 255 225 222 240 277 279 190 175 179 185 182 185 190 187 189 195 194 193 193 190 191 190 192 200 194 193 198 203 193 207 199 182 194 194
227 228 240 222 234 226 242 251 227 240 253 260 248 226 190 205 197 177 188 185 188 186 189 187 194 195 195 194 193 194 191 194 195 197 204 193 209 202 198 207 167 189 188 201
264 261 235 244 226 236 239 243 255 245 233 241 237 246 229 205 231 191 187 188 195 187 188 191 194 193 198 196 196 195 190 195 197 194 203 201 201 219 210 206 178 194 190 199
231 238 245 246 252 216 214 228 223 224 222 235 225 234 244 202 198 241 182 191 189 192 190 191 187 194 196 196 196 195 191 194 196 196 200 203 204 217 227 192 211 203 209 202
277 221 215 216 231 235 217 228 226 220 222 233 225 223 224 249 210 204 289 182 191 190 189 191 193 194 194 197 195 197 192 195 196 198 198 202 204 205 212 209 208 215 219 215
272 246 172 261 221 230 234 218 239 258 250 254 222 218 237 219 237 171 214 180 218 184 191 190 193 196 196 198 196 197 196 195 198 200 199 199 201 206 207 213 215 215 219 224
296 280 276 248 264 269 262 248 223 235 245 251 245 238 212 216 223 227 224 239 183 202 184 192 192 197 199 200 200 198 199 197 199 202 200 201 200 204 208 210 210 215 221 223
300 285 269 266 215 249 222 250 256 262 224 244 249 245 236 197 209 226 218 220 230 197 188 196 191 195 200 201 201 201 201 200 201 205 203 202 201 203 206 208 210 218 217 222
290 288 265 254 233 249 253 250 235 245 242 227 248 250 284 211 194 213 217 213 222 222 205 194 195 192 195 198 200 200 201 203 203 205 203 202 201 202 204 207 212 211 215 220
291 235 255 251 261 262 260 250 250 265 255 240 227 234 268 131 305 213 213 230 227 220 202 194 200 191 197 196 201 203 201 204 204 203 203 202 204 204 205 205 208 211 213 215
311 276 271 273 278 335 269 230 248 245 245 243 249 231 240 148 180 232 240 216 228 214 226 207 197 193 194 197 195 201 202 203 203 201 205 204 204 205 205 206 206 208 209 210
250 257 264 267 273 273 283 289 252 239 259 259 242 242 257 241 205 204 245 242 238 301 277 215 225 196 180 192 191 196 206 202 204 199 203 203 204 204 204 205 206 206 207 209
244 249 276 274 278 265 261 256 253 261 253 255 265 275 276 296 332 212 228 279 340 303 270 288 225 220 190 192 193 193 203 204 204 201 203 202 200 203 203 204 206 207 207 208
256 252 259 263 259 264 243 241 241 241 242 245 242 250 266 267 281 342 240 293 304 268 300 304 296 266 215 199 199 201 201 208 203 208 201 203 199 201 204 203 203 206 207 208
222 251 252 265 273 245 268 241 248 252 244 237 241 253 257 262 283 291 325 338 314 302 292 281 269 264 262 242 207 206 201 202 211 206 203 202 201 202 201 201 203 204 205 207
245 213 251 242 257 260 258 44 0 331 288 227 235 235 251 260 263 264 295 359 314 300 292 280 274 269 266 258 252 206 204 197 209 207 208 202 202 199 200 202 203 205 205 208
232 230 205 258 248 254 272 46 344 316 248 359 256 219 271 285 284 255 19 340 322 315 305 298 288 279 263 246 242 245 201 202 203 212 206 205 202 203 203 204 202 203 205 209
201 230 208 228 248 259 316 5 324 256 162 338 351 350 318 295 344 360 343 352 340 326 321 338 312 284 259 245 230 231 235 203 207 207 206 203 204 205 204 203 204 204 206 210
184 204 221 238 238 244 17 308 294 354 313 332 329 338 339 324 352 344 343 354 355 342 335 348 344 336 319 265 228 221 232 224 197 198 203 200 201 203 201 200 201 204 204 208
269 350 287 293 250 8 358 317 316 315 294 290 295 306 317 307 341 338 344 345 351 351 352 357 356 352 359 353 279 214 226 218 188 191 197 200 198 198 201 195 198 199 202 209
352 358 283 325 231 346 339 325 319 307 296 263 274 294 301 313 318 343 344 344 348 2 8 7 1 6 8 7 9 9 205 182 182 189 194 198 193 194 200 195 199 203 205 209
316 315 288 296 328 322 296 319 333 325 335 47 14 5 10 351 349 343 333 344 354 359 12 15 10 9 14 7 6 10 3 252 196 196 197 195 196 194 196 197 197 199 207 208
312 342 345 318 335 327 25 360 345 336 333 354 20 345 347 327 307 319 307 325 347 9 10 15 10 10 9 11 7 8 10 7 263 198 201 197 196 190 192 195 187 195 203 216
Height
751 759 754 741 737 732 719 720 726 708 714 718 723 731 756 720 723 735 742 749 756 762 771 782 789 795 802 810 816 821 826 830 836 840 843 844 844 847 848 850 852 856 857 859
746 751 736 729 727 734 732 734 726 708 699 721 721 724 723 715 717 724 734 744 751 758 767 777 785 791 798 806 812 819 824 828 833 837 840 842 842 844 847 849 852 855 857 859
741 730 729 732 735 739 737 739 732 728 708 703 715 733 721 732 708 714 725 733 743 751 758 769 779 785 793 800 808 815 820 825 830 834 838 841 843 843 846 847 851 854 856 858
733 722 730 735 737 734 745 730 730 727 728 736 712 750 753 736 715 713 722 730 736 745 753 763 773 779 785 793 803 810 817 821 827 831 835 838 839 840 842 844 846 850 854 856
733 732 732 737 733 729 741 723 728 733 735 730 722 735 722 717 733 711 715 723 726 735 743 752 762 770 778 788 796 804 812 818 822 827 830 835 837 838 840 841 843 848 852 854
730 711 720 723 720 726 728 734 733 729 737 755 731 722 716 718 711 699 702 710 718 724 734 743 755 766 774 781 789 797 804 811 817 821 826 830 834 835 836 839 841 847 848 852
734 731 720 721 729 723 733 741 760 765 757 752 718 725 706 679 692 692 688 699 707 714 724 735 745 755 763 771 779 788 796 803 810 815 820 825 830 833 835 838 840 842 843 845
741 737 723 717 727 727 730 732 741 764 748 731 710 722 705 677 670 678 685 680 691 703 712 724 734 744 753 761 770 779 786 795 802 808 813 819 825 829 833 835 837 840 840 842
740 739 710 714 712 720 723 734 715 724 706 711 693 696 684 676 678 684 710 678 692 688 699 712 725 735 745 754 760 768 777 786 794 801 807 812 819 824 827 831 835 837 839 839
749 759 725 722 723 721 721 705 735 727 750 741 704 694 696 690 685 680 680 673 677 680 687 701 714 726 736 745 754 764 771 778 786 794 799 805 810 817 822 826 830 833 835 838
759 757 749 729 736 739 731 730 721 710 716 733 729 698 656 669 676 679 677 678 673 675 680 691 702 715 727 738 747 755 764 772 779 786 791 797 803 809 815 820 824 828 832 834
758 761 758 745 719 721 721 720 721 729 732 710 712 699 648 649 658 670 668 671 673 673 674 681 691 704 715 727 736 744 752 761 768 776 783 789 795 801 807 812 817 822 826 830
767 770 772 759 744 732 731 719 716 713 707 711 718 708 656 658 663 662 669 671 670 670 673 678 686 694 705 716 727 734 743 749 757 767 774 782 787 792 797 803 809 815 820 823
785 776 766 755 743 743 738 734 722 718 720 715 706 696 674 675 678 675 669 666 668 669 670 671 677 685 697 706 717 726 732 741 749 757 764 771 776 782 789 795 801 806 811 816
787 786 771 760 751 752 750 739 722 723 718 725 705 702 683 673 677 676 671 670 670 673 670 670 672 676 688 700 709 720 728 735 740 747 754 759 767 774 782 788 793 799 804 808
776 782 778 781 767 752 757 748 744 735 726 727 724 713 683 680 678 670 679 679 685 684 680 677 674 678 684 694 703 712 720 725 732 737 743 750 759 767 772 779 786 791 796 800
780 797 789 784 764 755 756 746 740 734 726 725 730 713 700 697 697 689 682 688 693 693 690 689 687 682 683 690 698 704 712 721 726 731 738 745 751 757 763 770 777 783 788 794
785 794 793 793 768 776 739 718 719 723 718 713 713 708 703 700 697 705 696 701 701 700 698 698 695 693 690 686 689 698 705 714 718 723 729 737 743 749 756 763 768 774 780 784
765 774 798 795 775 756 734 739 747 740 725 704 706 706 700 697 697 700 695 705 707 707 704 701 698 695 694 692 688 689 697 704 712 715 720 725 733 741 749 754 760 766 772 777
761 768 788 777 777 772 744 752 749 744 736 719 693 702 703 701 715 707 713 715 712 711 707 703 698 694 691 691 691 688 688 695 701 705 709 719 728 734 740 746 752 757 763 767
778 785 779 776 777 762 739 747 748 758 753 748 737 731 718 717 718 720 721 717 716 714 709 707 699 689 684 685 686 686 682 683 689 703 709 716 722 728 735 742 748 752 756 760
780 780 777 773 769 771 759 751 759 762 762 757 750 745 744 736 733 733 727 723 721 718 713 709 701 692 680 674 675 677 680 678 687 695 702 708 715 722 729 735 740 746 750 755
780 784 777 770 761 763 772 776 770 769 764 766 758 755 753 746 742 742 737 731 729 725 718 713 708 699 689 677 668 670 674 677 682 689 696 702 709 716 721 727 733 739 744 746
797 801 791 785 762 779 786 781 779 775 766 763 757 754 755 752 749 749 745 739 734 728 721 717 712 704 694 687 681 676 671 674 680 687 693 698 703 710 715 721 727 731 734 738
813 813 804 793 788 786 786 787 782 774 765 761 760 758 757 755 753 752 748 744 736 731 725 721 716 710 702 696 690 683 678 676 679 684 689 694 699 705 709 712 716 719 724 728
809 808 803 797 799 794 788 787 782 775 768 765 759 760 759 758 757 753 750 744 739 733 729 723 719 712 705 700 695 688 683 680 679 681 685 687 691 698 701 706 710 712 717 722